Vereeniging Airport

Jump to: basic info | weather | frequencies | runways | comments

Related pages: nearby airports | nearby navaids | notams | map

Basic information (top)

Codes: FAVV
Location: lon -26.566401, lat 27.960800, elev 4,846 ft / 1,477 m msl
Status: medium_airport

Weather (top)

Current conditions (rec'd 2014/10/25 01:00Z):

FAVV 250100Z AUTO 03010KT //// // ////// 15/09 Q1019

Airport forecast for OR Tambo International Airport 30nm (55km) NNE (rec'd 2014/10/23 06:42Z):

TAF FAOR 230642Z 2306/2412 02013KT CAVOK 
     FM230900 32015KT 9999 SCT035 
      TEMPO 2313/2318 26016G28KT 5000 TSRA FEW035CB 
     FM231900 28007KT CAVOK 
      BECMG 2322/2324 04008KT TX28/2313ZTN12/2404Z

Frequencies (top)

Verify before use: may be inaccurate or out of date.

CTAF: 122.1 MHz (CTAF)

Runways (top)

03/21: 5,266 x 72 ft (1,605 x 22 m) — paved — lighted — threshold 21 displaced 260 ft (79 m)

15/33: 3,724 x 52 ft (1,135 x 16 m) — paved — not lighted

Latest comments (top)

help: My son whom is in Grade 11 has a school ... [read]

Information: Good day this is Mpho, i just need to ... [read]

More... (top)

See also NOTAMs and nearby airports and navaids, or visit the Vereeniging Airport page at the main OurAirports website..